Regional Weather Roundup
Issued by NWS

Home | Current Version | Previous Version | Text Only | Print | Product List | Glossary Off
Versions: 1 2 3 4 5 6 7 8 9 10 11 12 13 14 15 16 17 18 19 20 21 22 23 24 25 26 27 28 29 30 31 32 33 34 35 36 37 38 39 40 41 42 43 44 45 46 47 48 49 50

000
ASUS43 KLMK 301502
RWRKY
KENTUCKY REGIONAL WEATHER ROUNDUP
NATIONAL WEATHER SERVICE LOUISVILLE KY
1100 AM EDT THU OCT 30 2014

NOTE "FAIR" INDICATES FEW OR NO CLOUDS BELOW 12,000 FEET
WITH NO SIGNIFICANT WEATHER AND/OR OBSTRUCTIONS TO VISIBILITY.

KYZ001>023-026-027-061>063-070>075-301600-
WESTERN AND SOUTH CENTRAL KENTUCKY

CITY           SKY/WX    TMP DP  RH WIND       PRES   REMARKS
PADUCAH        SUNNY     50  43  77 SE5       30.17F
HENDERSON      SUNNY     48  37  66 E3        30.18S
OWENSBORO      SUNNY     49  40  71 SE3       30.18F
HOPKINSVILLE   SUNNY     51  40  67 VRB2      30.17S
BOWLING GREEN  SUNNY     50  39  66 CALM      30.19S
GLASGOW        SUNNY     50  38  62 E3        30.16F
$$

KYZ024-025-028>034-038-045-046-053-301600-
NORTH CENTRAL KENTUCKY

CITY           SKY/WX    TMP DP  RH WIND       PRES   REMARKS
LOUISVILLE/SDF MOSUNNY   50  36  58 VRB7      30.18S
LOUISVILLE/LOU SUNNY     49  37  63 CALM      30.19S
FORT KNOX      SUNNY     48  35  61 E6        30.16S
$$

KYZ035>037-039>044-047>052-055>060-089>105-301600-
NORTHEAST KENTUCKY

CITY           SKY/WX    TMP DP  RH WIND       PRES   REMARKS
LEXINGTON      CLOUDY    49  38  65 CALM      30.17S
COVINGTON      MOSUNNY   49  35  58 CALM      30.16F
FRANKFORT      CLOUDY    46  37  71 CALM      30.17S
$$

KYZ054-064>069-076>088-106>120-301600-
SOUTHEAST KENTUCKY

CITY           SKY/WX    TMP DP  RH WIND       PRES   REMARKS
JACKSON        SUNNY     46  34  62 CALM      30.15F
LONDON         SUNNY     50  36  58 VRB5      30.16S
SOMERSET       SUNNY     48  36  61 E6        30.17F
MIDDLESBORO    CLOUDY    39  39 100 CALM      30.16S FOG
MONTICELLO     SUNNY     50  39  65 NE5       30.18F
$$




USA.gov is the U.S. government's official web portal to all federal, state and local government web resources and services.